Year,Month,Day,Hour,Minute,Value (Times are PST for temperature in C)
2012,06,15,00,00,9.20
2012,06,15,00,01,9.20
2012,06,15,00,02,9.20
2012,06,15,00,03,9.20
2012,06,15,00,04,9.20
2012,06,15,00,05,9.20
2012,06,15,00,06,9.20
2012,06,15,00,07,9.20
2012,06,15,00,08,9.20
2012,06,15,00,09,9.20
2012,06,15,00,10,9.20
2012,06,15,00,11,9.20
2012,06,15,00,12,9.20
2012,06,15,00,13,9.20
2012,06,15,00,14,9.10
2012,06,15,00,15,9.10
2012,06,15,00,16,9.10
2012,06,15,00,17,9.00
2012,06,15,00,18,9.00
2012,06,15,00,19,8.90
2012,06,15,00,20,8.90
2012,06,15,00,21,8.90
2012,06,15,00,22,8.80
2012,06,15,00,23,8.80
2012,06,15,00,24,8.70
2012,06,15,00,25,8.70
2012,06,15,00,26,8.70
2012,06,15,00,27,8.70
2012,06,15,00,28,8.70
2012,06,15,00,29,8.60
2012,06,15,00,30,8.60
2012,06,15,00,31,8.60
2012,06,15,00,32,8.60
2012,06,15,00,33,8.50
2012,06,15,00,34,8.50
2012,06,15,00,35,8.50
2012,06,15,00,36,8.50
2012,06,15,00,37,8.50
2012,06,15,00,38,8.40
2012,06,15,00,39,8.40
2012,06,15,00,40,8.40
2012,06,15,00,41,8.40
2012,06,15,00,42,8.40
2012,06,15,00,43,8.30
2012,06,15,00,44,8.30
2012,06,15,00,45,8.30
2012,06,15,00,46,8.30
2012,06,15,00,47,8.30
2012,06,15,00,48,8.30
2012,06,15,00,49,8.30
2012,06,15,00,50,8.30
2012,06,15,00,51,8.30
2012,06,15,00,52,8.30
2012,06,15,00,53,8.30
2012,06,15,00,54,8.20
2012,06,15,00,55,8.20
2012,06,15,00,56,8.20
2012,06,15,00,57,8.20
2012,06,15,00,58,8.20
2012,06,15,00,59,8.20
2012,06,15,01,00,8.20
2012,06,15,01,01,8.20
2012,06,15,01,02,8.20
2012,06,15,01,03,8.20
2012,06,15,01,04,8.20
2012,06,15,01,05,8.20
2012,06,15,01,06,8.20
2012,06,15,01,07,8.20
2012,06,15,01,08,8.20
2012,06,15,01,09,8.10
2012,06,15,01,10,8.10
2012,06,15,01,11,8.10
2012,06,15,01,12,8.10
2012,06,15,01,13,8.10
2012,06,15,01,14,8.10
2012,06,15,01,15,8.10
2012,06,15,01,16,8.10
2012,06,15,01,17,8.10
2012,06,15,01,18,8.10
2012,06,15,01,19,8.00
2012,06,15,01,20,8.00
2012,06,15,01,21,8.00
2012,06,15,01,22,8.00
2012,06,15,01,23,7.90
2012,06,15,01,24,7.90
2012,06,15,01,25,7.90
2012,06,15,01,26,7.90
2012,06,15,01,27,7.90
2012,06,15,01,28,7.80
2012,06,15,01,29,7.80
2012,06,15,01,30,7.80
2012,06,15,01,31,7.80
2012,06,15,01,32,7.80
2012,06,15,01,33,7.80
2012,06,15,01,34,7.80
2012,06,15,01,35,7.80
2012,06,15,01,36,7.80
2012,06,15,01,37,7.80
2012,06,15,01,38,7.80
2012,06,15,01,39,7.80
2012,06,15,01,40,7.80
2012,06,15,01,41,7.80
2012,06,15,01,42,7.80
2012,06,15,01,43,7.80
2012,06,15,01,44,7.80
2012,06,15,01,45,7.80
2012,06,15,01,46,7.80
2012,06,15,01,47,7.80
2012,06,15,01,48,7.80
2012,06,15,01,49,7.80
2012,06,15,01,50,7.80
2012,06,15,01,51,7.70
2012,06,15,01,52,7.70
2012,06,15,01,53,7.70
2012,06,15,01,54,7.70
2012,06,15,01,55,7.70
2012,06,15,01,56,7.70
2012,06,15,01,57,7.70
2012,06,15,01,58,7.60
2012,06,15,01,59,7.60
2012,06,15,02,00,7.60
2012,06,15,02,01,7.60
2012,06,15,02,02,7.60
2012,06,15,02,03,7.60
2012,06,15,02,04,7.60
2012,06,15,02,05,7.60
2012,06,15,02,06,7.60
2012,06,15,02,07,7.60
2012,06,15,02,08,7.60
2012,06,15,02,09,7.60
2012,06,15,02,10,7.60
2012,06,15,02,11,7.50
2012,06,15,02,12,7.50
2012,06,15,02,13,7.50
2012,06,15,02,14,7.40
2012,06,15,02,15,7.40
2012,06,15,02,16,7.40
2012,06,15,02,17,7.40
2012,06,15,02,18,7.40
2012,06,15,02,19,7.40
2012,06,15,02,20,7.40
2012,06,15,02,21,7.40
2012,06,15,02,22,7.40
2012,06,15,02,23,7.40
2012,06,15,02,24,7.40
2012,06,15,02,25,7.40
2012,06,15,02,26,7.40
2012,06,15,02,27,7.40
2012,06,15,02,28,7.40
2012,06,15,02,29,7.40
2012,06,15,02,30,7.40
2012,06,15,02,31,7.40
2012,06,15,02,32,7.30
2012,06,15,02,33,7.30
2012,06,15,02,34,7.30
2012,06,15,02,35,7.30
2012,06,15,02,36,7.30
2012,06,15,02,37,7.30
2012,06,15,02,38,7.30
2012,06,15,02,39,7.30
2012,06,15,02,40,7.20
2012,06,15,02,41,7.20
2012,06,15,02,42,7.20
2012,06,15,02,43,7.20
2012,06,15,02,44,7.20
2012,06,15,02,45,7.20
2012,06,15,02,46,7.10
2012,06,15,02,47,7.10
2012,06,15,02,48,7.10
2012,06,15,02,49,7.10
2012,06,15,02,50,7.10
2012,06,15,02,51,7.00
2012,06,15,02,52,7.00
2012,06,15,02,53,7.00
2012,06,15,02,54,7.00
2012,06,15,02,55,7.00
2012,06,15,02,56,7.00
2012,06,15,02,57,6.90
2012,06,15,02,58,6.90
2012,06,15,02,59,6.90
2012,06,15,03,00,6.90
2012,06,15,03,01,6.90
2012,06,15,03,02,6.90
2012,06,15,03,03,6.90
2012,06,15,03,04,6.90
2012,06,15,03,05,6.90
2012,06,15,03,06,6.90
2012,06,15,03,07,6.90
2012,06,15,03,08,6.90
2012,06,15,03,09,6.90
2012,06,15,03,10,6.90
2012,06,15,03,11,6.90
2012,06,15,03,12,6.90
2012,06,15,03,13,6.90
2012,06,15,03,14,6.90
2012,06,15,03,15,6.90
2012,06,15,03,16,6.90
2012,06,15,03,17,6.90
2012,06,15,03,18,6.90
2012,06,15,03,19,6.90
2012,06,15,03,20,6.90
2012,06,15,03,21,6.90
2012,06,15,03,22,6.90
2012,06,15,03,23,6.90
2012,06,15,03,24,6.90
2012,06,15,03,25,6.90
2012,06,15,03,26,7.00
2012,06,15,03,27,7.00
2012,06,15,03,28,7.00
2012,06,15,03,29,7.00
2012,06,15,03,30,7.00
2012,06,15,03,31,7.00
2012,06,15,03,32,7.00
2012,06,15,03,33,7.00
2012,06,15,03,34,7.00
2012,06,15,03,35,6.90
2012,06,15,03,36,6.90
2012,06,15,03,37,6.90
2012,06,15,03,38,6.80
2012,06,15,03,39,6.80
2012,06,15,03,40,6.80
2012,06,15,03,41,6.80
2012,06,15,03,42,6.80
2012,06,15,03,43,6.80
2012,06,15,03,44,6.70
2012,06,15,03,45,6.70
2012,06,15,03,46,6.70
2012,06,15,03,47,6.70
2012,06,15,03,48,6.60
2012,06,15,03,49,6.60
2012,06,15,03,50,6.60
2012,06,15,03,51,6.60
2012,06,15,03,52,6.60
2012,06,15,03,53,6.60
2012,06,15,03,54,6.60
2012,06,15,03,55,6.60
2012,06,15,03,56,6.60
2012,06,15,03,57,6.60
2012,06,15,03,58,6.60
2012,06,15,03,59,6.60
2012,06,15,04,00,6.60
2012,06,15,04,01,6.60
2012,06,15,04,02,6.60
2012,06,15,04,03,6.60
2012,06,15,04,04,6.60
2012,06,15,04,05,6.60
2012,06,15,04,06,6.60
2012,06,15,04,07,6.60
2012,06,15,04,08,6.60
2012,06,15,04,09,6.60
2012,06,15,04,10,6.60
2012,06,15,04,11,6.60
2012,06,15,04,12,6.60
2012,06,15,04,13,6.60
2012,06,15,04,14,6.60
2012,06,15,04,15,6.60
2012,06,15,04,16,6.60
2012,06,15,04,17,6.60
2012,06,15,04,18,6.60
2012,06,15,04,19,6.60
2012,06,15,04,20,6.60
2012,06,15,04,21,6.60
2012,06,15,04,22,6.60
2012,06,15,04,23,6.60
2012,06,15,04,24,6.60
2012,06,15,04,25,6.60
2012,06,15,04,26,6.60
2012,06,15,04,27,6.60
2012,06,15,04,28,6.50
2012,06,15,04,29,6.40
2012,06,15,04,30,6.40
2012,06,15,04,31,6.40
2012,06,15,04,32,6.40
2012,06,15,04,33,6.40
2012,06,15,04,34,6.40
2012,06,15,04,35,6.30
2012,06,15,04,36,6.30
2012,06,15,04,37,6.30
2012,06,15,04,38,6.20
2012,06,15,04,39,6.20
2012,06,15,04,40,6.20
2012,06,15,04,41,6.20
2012,06,15,04,42,6.20
2012,06,15,04,43,6.20
2012,06,15,04,44,6.20
2012,06,15,04,45,6.20
2012,06,15,04,46,6.20
2012,06,15,04,47,6.20
2012,06,15,04,48,6.20
2012,06,15,04,49,6.20
2012,06,15,04,50,6.20
2012,06,15,04,51,6.20
2012,06,15,04,52,6.20
2012,06,15,04,53,6.20
2012,06,15,04,54,6.20
2012,06,15,04,55,6.20
2012,06,15,04,56,6.20
2012,06,15,04,57,6.20
2012,06,15,04,58,6.20
2012,06,15,04,59,6.10
2012,06,15,05,00,6.10
2012,06,15,05,01,6.10
2012,06,15,05,02,6.10
2012,06,15,05,03,6.10
2012,06,15,05,04,6.10
2012,06,15,05,05,6.10
2012,06,15,05,06,6.00
2012,06,15,05,07,6.00
2012,06,15,05,08,6.00
2012,06,15,05,09,6.00
2012,06,15,05,10,6.00
2012,06,15,05,11,6.00
2012,06,15,05,12,6.00
2012,06,15,05,13,6.00
2012,06,15,05,14,6.00
2012,06,15,05,15,6.00
2012,06,15,05,16,5.90
2012,06,15,05,17,5.90
2012,06,15,05,18,5.90
2012,06,15,05,19,5.90
2012,06,15,05,20,5.90
2012,06,15,05,21,5.90
2012,06,15,05,22,5.90
2012,06,15,05,23,5.90
2012,06,15,05,24,5.90
2012,06,15,05,25,6.00
2012,06,15,05,26,6.00
2012,06,15,05,27,6.00
2012,06,15,05,28,6.00
2012,06,15,05,29,6.00
2012,06,15,05,30,6.00
2012,06,15,05,31,6.00
2012,06,15,05,32,6.00
2012,06,15,05,33,6.00
2012,06,15,05,34,6.10
2012,06,15,05,35,6.10
2012,06,15,05,36,6.10
2012,06,15,05,37,6.10
2012,06,15,05,38,6.10
2012,06,15,05,39,6.10
2012,06,15,05,40,6.20
2012,06,15,05,41,6.20
2012,06,15,05,42,6.20
2012,06,15,05,43,6.20
2012,06,15,05,44,6.30
2012,06,15,05,45,6.30
2012,06,15,05,46,6.40
2012,06,15,05,47,6.40
2012,06,15,05,48,6.40
2012,06,15,05,49,6.40
2012,06,15,05,50,6.40
2012,06,15,05,51,6.40
2012,06,15,05,52,6.40
2012,06,15,05,53,6.40
2012,06,15,05,54,6.40
2012,06,15,05,55,6.50
2012,06,15,05,56,6.60
2012,06,15,05,57,6.60
2012,06,15,05,58,6.70
2012,06,15,05,59,6.80
2012,06,15,06,00,6.90
2012,06,15,06,01,6.90
2012,06,15,06,02,7.00
2012,06,15,06,03,7.10
2012,06,15,06,04,7.20
2012,06,15,06,05,7.30
2012,06,15,06,06,7.30
2012,06,15,06,07,7.30
2012,06,15,06,08,7.30
2012,06,15,06,09,7.30
2012,06,15,06,10,7.30
2012,06,15,06,11,7.30
2012,06,15,06,12,7.30
2012,06,15,06,13,7.30
2012,06,15,06,14,7.30
2012,06,15,06,15,7.30
2012,06,15,06,16,7.30
2012,06,15,06,17,7.30
2012,06,15,06,18,7.40
2012,06,15,06,19,7.40
2012,06,15,06,20,7.40
2012,06,15,06,21,7.50
2012,06,15,06,22,7.50
2012,06,15,06,23,7.50
2012,06,15,06,24,7.60
2012,06,15,06,25,7.60
2012,06,15,06,26,7.60
2012,06,15,06,27,7.70
2012,06,15,06,28,7.70
2012,06,15,06,29,7.70
2012,06,15,06,30,7.80
2012,06,15,06,31,7.80
2012,06,15,06,32,7.80
2012,06,15,06,33,7.80
2012,06,15,06,34,7.80
2012,06,15,06,35,7.80
2012,06,15,06,36,7.80
2012,06,15,06,37,7.80
2012,06,15,06,38,7.90
2012,06,15,06,39,7.90
2012,06,15,06,40,7.90
2012,06,15,06,41,8.00
2012,06,15,06,42,8.00
2012,06,15,06,43,8.00
2012,06,15,06,44,8.10
2012,06,15,06,45,8.10
2012,06,15,06,46,8.20
2012,06,15,06,47,8.30
2012,06,15,06,48,8.30
2012,06,15,06,49,8.40
2012,06,15,06,50,8.50
2012,06,15,06,51,8.60
2012,06,15,06,52,8.70
2012,06,15,06,53,8.70
2012,06,15,06,54,8.80
2012,06,15,06,55,8.80
2012,06,15,06,56,8.90
2012,06,15,06,57,9.00
2012,06,15,06,58,9.10
2012,06,15,06,59,9.20
2012,06,15,07,00,9.30
2012,06,15,07,01,9.40
2012,06,15,07,02,9.50
2012,06,15,07,03,9.60
2012,06,15,07,04,9.70
2012,06,15,07,05,9.70
2012,06,15,07,06,9.80
2012,06,15,07,07,9.80
2012,06,15,07,08,9.90
2012,06,15,07,09,10.00
2012,06,15,07,10,10.10
2012,06,15,07,11,10.20
2012,06,15,07,12,10.40
2012,06,15,07,13,10.50
2012,06,15,07,14,10.60
2012,06,15,07,15,10.70
2012,06,15,07,16,10.80
2012,06,15,07,17,10.90
2012,06,15,07,18,11.00
2012,06,15,07,19,11.10
2012,06,15,07,20,11.20
2012,06,15,07,21,11.30
2012,06,15,07,22,11.40
2012,06,15,07,23,11.40
2012,06,15,07,24,11.50
2012,06,15,07,25,11.60
2012,06,15,07,26,11.60
2012,06,15,07,27,11.60
2012,06,15,07,28,11.60
2012,06,15,07,29,11.70
2012,06,15,07,30,11.70
2012,06,15,07,31,11.80
2012,06,15,07,32,11.80
2012,06,15,07,33,11.80
2012,06,15,07,34,11.90
2012,06,15,07,35,11.90
2012,06,15,07,36,11.90
2012,06,15,07,37,12.00
2012,06,15,07,38,12.00
2012,06,15,07,39,12.00
2012,06,15,07,40,12.00
2012,06,15,07,41,12.00
2012,06,15,07,42,12.00
2012,06,15,07,43,12.00
2012,06,15,07,44,12.10
2012,06,15,07,45,12.10
2012,06,15,07,46,12.20
2012,06,15,07,47,12.20
2012,06,15,07,48,12.20
2012,06,15,07,49,12.30
2012,06,15,07,50,12.30
2012,06,15,07,51,12.40
2012,06,15,07,52,12.40
2012,06,15,07,53,12.50
2012,06,15,07,54,12.50
2012,06,15,07,55,12.50
2012,06,15,07,56,12.50
2012,06,15,07,57,12.50
2012,06,15,07,58,12.60
2012,06,15,07,59,12.60
2012,06,15,08,00,12.70
2012,06,15,08,01,12.70
2012,06,15,08,02,12.70
2012,06,15,08,03,12.80
2012,06,15,08,04,12.80
2012,06,15,08,05,12.80
2012,06,15,08,06,12.80
2012,06,15,08,07,12.80
2012,06,15,08,08,12.80
2012,06,15,08,09,12.80
2012,06,15,08,10,12.90
2012,06,15,08,11,12.90
2012,06,15,08,12,12.90
2012,06,15,08,13,12.90
2012,06,15,08,14,13.00
2012,06,15,08,15,13.00
2012,06,15,08,16,13.00
2012,06,15,08,17,13.00
2012,06,15,08,18,13.00
2012,06,15,08,19,13.10
2012,06,15,08,20,13.10
2012,06,15,08,21,13.10
2012,06,15,08,22,13.20
2012,06,15,08,23,13.30
2012,06,15,08,24,13.30
2012,06,15,08,25,13.40
2012,06,15,08,26,13.40
2012,06,15,08,27,13.50
2012,06,15,08,28,13.50
2012,06,15,08,29,13.60
2012,06,15,08,30,13.70
2012,06,15,08,31,13.70
2012,06,15,08,32,13.70
2012,06,15,08,33,13.70
2012,06,15,08,34,13.70
2012,06,15,08,35,13.70
2012,06,15,08,36,13.70
2012,06,15,08,37,13.70
2012,06,15,08,38,13.70
2012,06,15,08,39,13.70
2012,06,15,08,40,13.60
2012,06,15,08,41,13.60
2012,06,15,08,42,13.60
2012,06,15,08,43,13.50
2012,06,15,08,44,13.50
2012,06,15,08,45,13.50
2012,06,15,08,46,13.40
2012,06,15,08,47,13.50
2012,06,15,08,48,13.50
2012,06,15,08,49,13.60
2012,06,15,08,50,13.60
2012,06,15,08,51,13.70
2012,06,15,08,52,13.70
2012,06,15,08,53,13.70
2012,06,15,08,54,13.70
2012,06,15,08,55,13.80
2012,06,15,08,56,13.80
2012,06,15,08,57,13.90
2012,06,15,08,58,13.90
2012,06,15,08,59,13.90
2012,06,15,09,00,13.90
2012,06,15,09,01,13.90
2012,06,15,09,02,14.00
2012,06,15,09,03,14.00
2012,06,15,09,04,14.00
2012,06,15,09,05,14.00
2012,06,15,09,06,14.00
2012,06,15,09,07,14.10
2012,06,15,09,08,14.20
2012,06,15,09,09,14.30
2012,06,15,09,10,14.40
2012,06,15,09,11,14.40
2012,06,15,09,12,14.50
2012,06,15,09,13,14.50
2012,06,15,09,14,14.60
2012,06,15,09,15,14.60
2012,06,15,09,16,14.70
2012,06,15,09,17,14.70
2012,06,15,09,18,14.70
2012,06,15,09,19,14.70
2012,06,15,09,20,14.70
2012,06,15,09,21,14.80
2012,06,15,09,22,14.80
2012,06,15,09,23,14.90
2012,06,15,09,24,14.90
2012,06,15,09,25,14.90
2012,06,15,09,26,14.90
2012,06,15,09,27,15.00
2012,06,15,09,28,15.00
2012,06,15,09,29,15.00
2012,06,15,09,30,15.10
2012,06,15,09,31,15.10
2012,06,15,09,32,15.10
2012,06,15,09,33,15.10
2012,06,15,09,34,15.10
2012,06,15,09,35,15.00
2012,06,15,09,36,15.00
2012,06,15,09,37,15.00
2012,06,15,09,38,15.00
2012,06,15,09,39,15.00
2012,06,15,09,40,15.00
2012,06,15,09,41,15.00
2012,06,15,09,42,15.00
2012,06,15,09,43,15.00
2012,06,15,09,44,15.00
2012,06,15,09,45,15.00
2012,06,15,09,46,15.00
2012,06,15,09,47,14.90
2012,06,15,09,48,15.00
2012,06,15,09,49,15.00
2012,06,15,09,50,15.10
2012,06,15,09,51,15.20
2012,06,15,09,52,15.20
2012,06,15,09,53,15.30
2012,06,15,09,54,15.30
2012,06,15,09,55,15.30
2012,06,15,09,56,15.30
2012,06,15,09,57,15.30
2012,06,15,09,58,15.30
2012,06,15,09,59,15.30
2012,06,15,10,00,15.30
2012,06,15,10,01,15.30
2012,06,15,10,02,15.30
2012,06,15,10,03,15.30
2012,06,15,10,04,15.30
2012,06,15,10,05,15.40
2012,06,15,10,06,15.50
2012,06,15,10,07,15.50
2012,06,15,10,08,15.50
2012,06,15,10,09,15.50
2012,06,15,10,10,15.60
2012,06,15,10,11,15.60
2012,06,15,10,12,15.60
2012,06,15,10,13,15.60
2012,06,15,10,14,15.70
2012,06,15,10,15,15.70
2012,06,15,10,16,15.80
2012,06,15,10,17,15.90
2012,06,15,10,18,16.10
2012,06,15,10,19,16.10
2012,06,15,10,20,16.10
2012,06,15,10,21,16.00
2012,06,15,10,22,15.90
2012,06,15,10,23,16.00
2012,06,15,10,24,15.90
2012,06,15,10,25,16.10
2012,06,15,10,26,16.10
2012,06,15,10,27,16.10
2012,06,15,10,28,16.10
2012,06,15,10,29,16.10
2012,06,15,10,30,16.10
2012,06,15,10,31,16.10
2012,06,15,10,32,16.20
2012,06,15,10,33,16.20
2012,06,15,10,34,16.30
2012,06,15,10,35,16.20
2012,06,15,10,36,16.10
2012,06,15,10,37,16.10
2012,06,15,10,38,16.00
2012,06,15,10,39,16.00
2012,06,15,10,40,16.10
2012,06,15,10,41,16.10
2012,06,15,10,42,16.20
2012,06,15,10,43,16.20
2012,06,15,10,44,16.20
2012,06,15,10,45,16.20
2012,06,15,10,46,16.20
2012,06,15,10,47,16.20
2012,06,15,10,48,16.30
2012,06,15,10,49,16.40
2012,06,15,10,50,16.40
2012,06,15,10,51,16.60
2012,06,15,10,52,16.70
2012,06,15,10,53,16.70
2012,06,15,10,54,16.80
2012,06,15,10,55,16.70
2012,06,15,10,56,16.70
2012,06,15,10,57,16.70
2012,06,15,10,58,16.70
2012,06,15,10,59,16.60
2012,06,15,11,00,16.50
2012,06,15,11,01,16.40
2012,06,15,11,02,16.40
2012,06,15,11,03,16.40
2012,06,15,11,04,16.50
2012,06,15,11,05,16.60
2012,06,15,11,06,16.60
2012,06,15,11,07,16.60
2012,06,15,11,08,16.60
2012,06,15,11,09,16.70
2012,06,15,11,10,16.80
2012,06,15,11,11,16.90
2012,06,15,11,12,17.00
2012,06,15,11,13,17.10
2012,06,15,11,14,17.10
2012,06,15,11,15,17.10
2012,06,15,11,16,17.10
2012,06,15,11,17,17.20
2012,06,15,11,18,17.20
2012,06,15,11,19,17.30
2012,06,15,11,20,17.30
2012,06,15,11,21,17.30
2012,06,15,11,22,17.20
2012,06,15,11,23,17.10
2012,06,15,11,24,17.00
2012,06,15,11,25,16.90
2012,06,15,11,26,16.60
2012,06,15,11,27,16.20
2012,06,15,11,28,15.90
2012,06,15,11,29,15.80
2012,06,15,11,30,15.60
2012,06,15,11,31,15.60
2012,06,15,11,32,15.60
2012,06,15,11,33,15.70
2012,06,15,11,34,15.70
2012,06,15,11,35,15.70
2012,06,15,11,36,15.80
2012,06,15,11,37,15.80
2012,06,15,11,38,15.80
2012,06,15,11,39,15.90
2012,06,15,11,40,15.90
2012,06,15,11,41,15.80
2012,06,15,11,42,15.80
2012,06,15,11,43,15.80
2012,06,15,11,44,15.70
2012,06,15,11,45,15.60
2012,06,15,11,46,15.60
2012,06,15,11,47,15.60
2012,06,15,11,48,15.60
2012,06,15,11,49,15.70
2012,06,15,11,50,15.70
2012,06,15,11,51,15.80
2012,06,15,11,52,15.80
2012,06,15,11,53,15.70
2012,06,15,11,54,15.60
2012,06,15,11,55,15.60
2012,06,15,11,56,15.60
2012,06,15,11,57,15.50
2012,06,15,11,58,15.30
2012,06,15,11,59,15.20
2012,06,15,12,00,15.20
2012,06,15,12,01,15.20
2012,06,15,12,02,15.20
2012,06,15,12,03,15.30
2012,06,15,12,04,15.30
2012,06,15,12,05,15.30
2012,06,15,12,06,15.40
2012,06,15,12,07,15.50
2012,06,15,12,08,15.60
2012,06,15,12,09,15.70
2012,06,15,12,10,15.80
2012,06,15,12,11,15.80
2012,06,15,12,12,15.80
2012,06,15,12,13,16.00
2012,06,15,12,14,16.20
2012,06,15,12,15,16.30
2012,06,15,12,16,16.50
2012,06,15,12,17,16.70
2012,06,15,12,18,16.70
2012,06,15,12,19,16.80
2012,06,15,12,20,16.90
2012,06,15,12,21,16.90
2012,06,15,12,22,17.00
2012,06,15,12,23,17.00
2012,06,15,12,24,17.00
2012,06,15,12,25,17.10
2012,06,15,12,26,17.20
2012,06,15,12,27,17.20
2012,06,15,12,28,17.20
2012,06,15,12,29,17.20
2012,06,15,12,30,17.20
2012,06,15,12,31,17.20
2012,06,15,12,32,17.20
2012,06,15,12,33,17.20
2012,06,15,12,34,17.20
2012,06,15,12,35,17.30
2012,06,15,12,36,17.40
2012,06,15,12,37,17.50
2012,06,15,12,38,17.60
2012,06,15,12,39,17.70
2012,06,15,12,40,17.70
2012,06,15,12,41,17.80
2012,06,15,12,42,17.90
2012,06,15,12,43,17.90
2012,06,15,12,44,17.90
2012,06,15,12,45,17.90
2012,06,15,12,46,17.90
2012,06,15,12,47,17.90
2012,06,15,12,48,17.90
2012,06,15,12,49,18.00
2012,06,15,12,50,18.10
2012,06,15,12,51,18.40
2012,06,15,12,52,18.40
2012,06,15,12,53,18.40
2012,06,15,12,54,18.40
2012,06,15,12,55,18.40
2012,06,15,12,56,18.30
2012,06,15,12,57,18.20
2012,06,15,12,58,18.20
2012,06,15,12,59,18.20
2012,06,15,13,00,18.10
2012,06,15,13,01,17.90
2012,06,15,13,02,17.80
2012,06,15,13,03,17.70
2012,06,15,13,04,17.70
2012,06,15,13,05,17.70
2012,06,15,13,06,17.60
2012,06,15,13,07,17.70
2012,06,15,13,08,17.70
2012,06,15,13,09,17.60
2012,06,15,13,10,17.50
2012,06,15,13,11,17.40
2012,06,15,13,12,17.30
2012,06,15,13,13,17.30
2012,06,15,13,14,17.30
2012,06,15,13,15,17.30
2012,06,15,13,16,17.10
2012,06,15,13,17,16.90
2012,06,15,13,18,16.70
2012,06,15,13,19,16.60
2012,06,15,13,20,16.70
2012,06,15,13,21,16.70
2012,06,15,13,22,16.80
2012,06,15,13,23,16.90
2012,06,15,13,24,17.00
2012,06,15,13,25,17.10
2012,06,15,13,26,17.20
2012,06,15,13,27,17.30
2012,06,15,13,28,17.40
2012,06,15,13,29,17.40
2012,06,15,13,30,17.50
2012,06,15,13,31,17.80
2012,06,15,13,32,17.90
2012,06,15,13,33,17.90
2012,06,15,13,34,17.90
2012,06,15,13,35,17.90
2012,06,15,13,36,17.80
2012,06,15,13,37,17.90
2012,06,15,13,38,18.00
2012,06,15,13,39,18.20
2012,06,15,13,40,18.20
2012,06,15,13,41,18.20
2012,06,15,13,42,18.20
2012,06,15,13,43,18.30
2012,06,15,13,44,18.40
2012,06,15,13,45,18.50
2012,06,15,13,46,18.50
2012,06,15,13,47,18.50
2012,06,15,13,48,18.40
2012,06,15,13,49,18.30
2012,06,15,13,50,18.20
2012,06,15,13,51,18.20
2012,06,15,13,52,18.20
2012,06,15,13,53,18.20
2012,06,15,13,54,18.20
2012,06,15,13,55,18.20
2012,06,15,13,56,18.00
2012,06,15,13,57,17.90
2012,06,15,13,58,17.80
2012,06,15,13,59,17.80
2012,06,15,14,00,17.80
2012,06,15,14,01,17.90
2012,06,15,14,02,18.00
2012,06,15,14,03,18.10
2012,06,15,14,04,18.10
2012,06,15,14,05,18.20
2012,06,15,14,06,18.30
2012,06,15,14,07,18.30
2012,06,15,14,08,18.40
2012,06,15,14,09,18.50
2012,06,15,14,10,18.50
2012,06,15,14,11,18.60
2012,06,15,14,12,18.60
2012,06,15,14,13,18.70
2012,06,15,14,14,18.70
2012,06,15,14,15,18.60
2012,06,15,14,16,18.60
2012,06,15,14,17,18.40
2012,06,15,14,18,18.40
2012,06,15,14,19,18.40
2012,06,15,14,20,18.30
2012,06,15,14,21,18.20
2012,06,15,14,22,18.20
2012,06,15,14,23,18.30
2012,06,15,14,24,18.30
2012,06,15,14,25,18.30
2012,06,15,14,26,18.40
2012,06,15,14,27,18.40
2012,06,15,14,28,18.50
2012,06,15,14,29,18.50
2012,06,15,14,30,18.40
2012,06,15,14,31,18.30
2012,06,15,14,32,18.20
2012,06,15,14,33,18.20
2012,06,15,14,34,18.20
2012,06,15,14,35,18.20
2012,06,15,14,36,18.20
2012,06,15,14,37,18.20
2012,06,15,14,38,18.20
2012,06,15,14,39,18.30
2012,06,15,14,40,18.40
2012,06,15,14,41,18.40
2012,06,15,14,42,18.20
2012,06,15,14,43,18.20
2012,06,15,14,44,18.30
2012,06,15,14,45,18.30
2012,06,15,14,46,18.20
2012,06,15,14,47,18.20
2012,06,15,14,48,18.20
2012,06,15,14,49,18.10
2012,06,15,14,50,17.90
2012,06,15,14,51,17.90
2012,06,15,14,52,17.90
2012,06,15,14,53,17.90
2012,06,15,14,54,17.90
2012,06,15,14,55,17.90
2012,06,15,14,56,18.00
2012,06,15,14,57,18.10
2012,06,15,14,58,18.10
2012,06,15,14,59,18.00
2012,06,15,15,00,17.90
2012,06,15,15,01,17.90
2012,06,15,15,02,17.80
2012,06,15,15,03,17.80
2012,06,15,15,04,17.70
2012,06,15,15,05,17.70
2012,06,15,15,06,17.80
2012,06,15,15,07,17.90
2012,06,15,15,08,18.00
2012,06,15,15,09,18.00
2012,06,15,15,10,17.90
2012,06,15,15,11,17.80
2012,06,15,15,12,17.70
2012,06,15,15,13,17.70
2012,06,15,15,14,17.70
2012,06,15,15,15,17.70
2012,06,15,15,16,17.70
2012,06,15,15,17,17.80
2012,06,15,15,18,17.80
2012,06,15,15,19,17.90
2012,06,15,15,20,17.90
2012,06,15,15,21,18.10
2012,06,15,15,22,18.10
2012,06,15,15,23,18.00
2012,06,15,15,24,17.90
2012,06,15,15,25,17.90
2012,06,15,15,26,17.90
2012,06,15,15,27,17.80
2012,06,15,15,28,17.60
2012,06,15,15,29,17.50
2012,06,15,15,30,17.50
2012,06,15,15,31,17.40
2012,06,15,15,32,17.30
2012,06,15,15,33,17.30
2012,06,15,15,34,17.30
2012,06,15,15,35,17.20
2012,06,15,15,36,17.10
2012,06,15,15,37,17.00
2012,06,15,15,38,17.00
2012,06,15,15,39,16.90
2012,06,15,15,40,16.90
2012,06,15,15,41,16.90
2012,06,15,15,42,16.90
2012,06,15,15,43,16.90
2012,06,15,15,44,16.90
2012,06,15,15,45,16.90
2012,06,15,15,46,16.80
2012,06,15,15,47,16.70
2012,06,15,15,48,16.60
2012,06,15,15,49,16.50
2012,06,15,15,50,16.40
2012,06,15,15,51,16.40
2012,06,15,15,52,16.40
2012,06,15,15,53,16.40
2012,06,15,15,54,16.40
2012,06,15,15,55,16.40
2012,06,15,15,56,16.40
2012,06,15,15,57,16.50
2012,06,15,15,58,16.60
2012,06,15,15,59,16.60
2012,06,15,16,00,16.70
2012,06,15,16,01,16.70
2012,06,15,16,02,16.80
2012,06,15,16,03,16.80
2012,06,15,16,04,16.90
2012,06,15,16,05,16.90
2012,06,15,16,06,16.90
2012,06,15,16,07,16.90
2012,06,15,16,08,17.00
2012,06,15,16,09,17.00
2012,06,15,16,10,17.10
2012,06,15,16,11,17.20
2012,06,15,16,12,17.20
2012,06,15,16,13,17.20
2012,06,15,16,14,17.20
2012,06,15,16,15,17.30
2012,06,15,16,16,17.20
2012,06,15,16,17,17.20
2012,06,15,16,18,17.30
2012,06,15,16,19,17.30
2012,06,15,16,20,17.30
2012,06,15,16,21,17.20
2012,06,15,16,22,17.20
2012,06,15,16,23,17.20
2012,06,15,16,24,17.10
2012,06,15,16,25,17.10
2012,06,15,16,26,17.10
2012,06,15,16,27,17.00
2012,06,15,16,28,17.00
2012,06,15,16,29,17.00
2012,06,15,16,30,16.90
2012,06,15,16,31,16.90
2012,06,15,16,32,16.90
2012,06,15,16,33,17.00
2012,06,15,16,34,17.10
2012,06,15,16,35,17.10
2012,06,15,16,36,17.20
2012,06,15,16,37,17.30
2012,06,15,16,38,17.30
2012,06,15,16,39,17.30
2012,06,15,16,40,17.40
2012,06,15,16,41,17.50
2012,06,15,16,42,17.60
2012,06,15,16,43,17.70
2012,06,15,16,44,17.80
2012,06,15,16,45,17.80
2012,06,15,16,46,17.80
2012,06,15,16,47,17.80
2012,06,15,16,48,17.80
2012,06,15,16,49,17.90
2012,06,15,16,50,17.90
2012,06,15,16,51,17.90
2012,06,15,16,52,17.80
2012,06,15,16,53,17.80
2012,06,15,16,54,17.80
2012,06,15,16,55,17.80
2012,06,15,16,56,17.80
2012,06,15,16,57,17.90
2012,06,15,16,58,17.90
2012,06,15,16,59,17.90
2012,06,15,17,00,18.00
2012,06,15,17,01,18.10
2012,06,15,17,02,18.10
2012,06,15,17,03,18.10
2012,06,15,17,04,18.10
2012,06,15,17,05,18.20
2012,06,15,17,06,18.20
2012,06,15,17,07,18.20
2012,06,15,17,08,18.20
2012,06,15,17,09,18.20
2012,06,15,17,10,18.30
2012,06,15,17,11,18.30
2012,06,15,17,12,18.30
2012,06,15,17,13,18.40
2012,06,15,17,14,18.40
2012,06,15,17,15,18.50
2012,06,15,17,16,18.50
2012,06,15,17,17,18.60
2012,06,15,17,18,18.60
2012,06,15,17,19,18.60
2012,06,15,17,20,18.70
2012,06,15,17,21,18.70
2012,06,15,17,22,18.80
2012,06,15,17,23,18.80
2012,06,15,17,24,18.80
2012,06,15,17,25,18.80
2012,06,15,17,26,18.80
2012,06,15,17,27,18.80
2012,06,15,17,28,18.80
2012,06,15,17,29,18.80
2012,06,15,17,30,18.70
2012,06,15,17,31,18.70
2012,06,15,17,32,18.70
2012,06,15,17,33,18.60
2012,06,15,17,34,18.60
2012,06,15,17,35,18.60
2012,06,15,17,36,18.50
2012,06,15,17,37,18.50
2012,06,15,17,38,18.50